Location: Martley
(52.2333°N, 2.3667°W)
Time: 16:45:10
(UTC+00:00)

Geosat - Pass Details

Date: 11 December 2019
Orbit: 763 x 766 km, 108.0° (Epoch: 20 January)

Event Time Altitude Azimuth Distance (km) Brightness Sun altitude
Rises 05:10:36 0° 155° (SSE) 3,218 7.6 -25.8°
Reaches altitude 10° 05:12:53 10° 157° (SSE) 2,296 6.8 -25.4°
Maximum altitude 05:17:52 69° 241° (WSW) 823 3.9 -24.7°
Enters shadow 05:17:53 69° 243° (WSW) 823 3.9 -24.7°
